Location: Freistadt
(48.5112°N, 14.5013°E)
Time: 09:38:43
(UTC+02:00)

NOAA 16 DEB - Visible Passes

Search period start: 21 May 2024 00:00
Search period end: 31 May 2024 00:00
Orbit: 777 x 812 km, 99.0° (Epoch: 15 May)

Date Brightness Start Highest point End Pass type
(mag) Time Alt. Az. Time Alt. Az. Time Alt. Az.
21 May ? 03:19:02 10° SE 03:24:04 51° ENE 03:29:10 10° N visible
22 May ? 02:51:23 10° ESE 02:55:56 31° ENE 03:00:33 10° N visible
22 May ? 04:30:22 10° S 04:35:18 43° W 04:40:20 10° NNW visible
23 May ? 02:24:12 10° ESE 02:27:54 20° ENE 02:31:40 10° N visible
23 May ? 04:01:39 10° S 04:06:51 74° WSW 04:12:09 10° NNW visible
24 May ? 01:57:45 10° ENE 01:59:58 13° NE 02:02:11 10° NNE visible
24 May ? 03:33:21 10° SSE 03:38:31 66° ENE 03:43:45 10° N visible
25 May ? 03:05:24 10° SE 03:10:14 40° ENE 03:15:08 10° N visible
26 May ? 02:37:52 10° ESE 02:42:04 25° ENE 02:46:18 10° N visible
26 May ? 04:16:05 10° S 04:21:13 57° WSW 04:26:26 10° NNW visible
27 May ? 02:10:55 10° E 02:13:59 16° NE 02:17:05 10° NNE visible
27 May ? 03:47:28 10° SSE 03:52:43 84° ENE 03:58:02 10° NNW visible
28 May ? 03:19:16 10° SE 03:24:18 50° ENE 03:29:25 10° N visible
29 May ? 02:51:27 10° ESE 02:56:00 31° ENE 03:00:36 10° N visible
30 May ? 02:24:06 10° E 02:27:47 20° ENE 02:31:29 10° NNE visible
30 May ? 04:01:27 10° S 04:06:41 77° WSW 04:12:01 10° NNW visible
